CW5917 Weather Reports


time (UTC)temp
C
wind
direction
speed
KPH
gust
KPH
rain 1hr
cm
rain 24hr
cm
rain mn
cm
humidity
%
barometer
mb
20260904034529 25 120 1.6 14.5 0.00 0.13 0.13 91 1014.2
20260904034022 25 89 4.8 14.5 0.00 0.13 0.13 91 1014.3
20260904033535 25 115 1.6 9.7 0.00 0.13 0.13 91 1014.4
20260904033033 25 122 1.6 9.7 0.00 0.13 0.13 91 1014.5
20260904032528 25 138 4.8 11.3 0.00 0.13 0.13 91 1014.5
20260904032020 25 126 4.8 11.3 0.00 0.13 0.13 91 1014.6
20260904031520 25 117 4.8 11.3 0.00 0.13 0.13 91 1014.6
20260904031029 25 117 4.8 11.3 0.00 0.13 0.13 91 1014.7
20260904030525 25 129 4.8 11.3 0.00 0.13 0.13 91 1014.6
20260904030026 25 108 4.8 9.7 0.00 0.13 0.13 91 1014.6
20260904025521 25 111 3.2 9.7 0.00 0.13 0.13 91 1014.5
20260904025035 25 117 4.8 11.3 0.00 0.13 0.13 91 1014.6
20260904024525 25 80 4.8 11.3 0.00 0.13 0.13 90 1014.5
20260904024036 25 91 6.4 11.3 0.00 0.13 0.13 90 1014.3
20260904023538 25 107 4.8 11.3 0.00 0.13 0.13 90 1014.2
20260904023026 25 79 6.4 11.3 0.00 0.13 0.13 90 1014.2
20260904022522 25 109 4.8 11.3 0.00 0.13 0.13 90 1014.1
20260904022057 25 85 6.4 11.3 0.00 0.13 0.13 90 1014.1
20260904021529 25 123 4.8 12.9 0.00 0.13 0.13 90 1014.2
20260904021025 25 71 4.8 12.9 0.00 0.13 0.13 90 1014.3
20260904020541 25 115 3.2 9.7 0.00 0.13 0.13 90 1014.2
20260904020028 25 113 3.2 6.4 0.00 0.13 0.13 90 1014.1
20260904015544 25 113 3.2 8.0 0.00 0.13 0.13 90 1014.0
20260904015035 25 90 3.2 9.7 0.00 0.13 0.13 90 1014.0
20260904014517 25 104 4.8 11.3 0.00 0.13 0.13 90 1013.9
20260904014033 25 101 4.8 11.3 0.00 0.13 0.13 90 1013.8
20260904013517 25 105 4.8 11.3 0.00 0.13 0.13 90 1013.8
20260904013037 25 128 4.8 9.7 0.00 0.13 0.13 90 1013.7
20260904012521 25 110 4.8 9.7 0.00 0.13 0.13 90 1013.5
20260904012034 25 99 4.8 6.4 0.00 0.13 0.13 90 1013.5
20260904011520 25 124 4.8 9.7 0.00 0.13 0.13 90 1013.7
20260904011056 26 93 1.6 9.7 0.00 0.13 0.13 89 1013.7
20260904010528 26 93 4.8 9.7 0.00 0.13 0.13 89 1013.8
20260904010021 26 93 3.2 6.4 0.00 0.13 0.13 89 1013.8
20260904005531 26 103 1.6 6.4 0.00 0.13 0.13 89 1013.7
20260904005018 26 103 1.6 6.4 0.00 0.13 0.13 89 1013.7
20260904004536 26 103 3.2 6.4 0.00 0.13 0.13 89 1013.6
20260904004028 26 103 3.2 6.4 0.00 0.13 0.13 88 1013.6
20260904003525 26 57 0.0 4.8 0.00 0.13 0.13 88 1013.5
20260904003047 26 57 0.0 3.2 0.00 0.13 0.13 87 1013.5
20260904002520 26 57 1.6 6.4 0.00 0.13 0.13 87 1013.5
20260904002033 26 57 3.2 8.0 0.00 0.13 0.13 87 1013.5
20260904001521 27 57 4.8 8.0 0.00 0.13 0.13 86 1013.4
20260904001035 27 110 3.2 6.4 0.00 0.13 0.13 84 1013.7
20260904000520 27 110 3.2 6.4 0.00 0.13 0.13 83 1013.5
20260904000028 27 110 3.2 6.4 0.00 0.13 0.13 83 1013.4
20260903235525 27 110 1.6 4.8 0.00 0.13 0.13 83 1013.4
20260903235039 27 110 0.0 4.8 0.00 0.13 0.13 82 1013.3
20260903234535 27 110 3.2 9.7 0.00 0.13 0.13 82 1013.3
20260903234050 27 110 3.2 6.4 0.00 0.13 0.13 82 1013.4
20260903233542 27 110 3.2 6.4 0.00 0.13 0.13 82 1013.2
20260903233030 27 159 0.0 4.8 0.00 0.13 0.13 83 1013.3
20260903232525 27 159 1.6 8.0 0.00 0.13 0.13 84 1013.1
20260903232057 27 174 3.2 8.0 0.00 0.13 0.13 84 1013.2
20260903231530 27 115 0.0 6.4 0.00 0.13 0.13 85 1013.0
20260903231026 27 136 1.6 6.4 0.00 0.13 0.13 85 1013.1
20260903230521 27 138 1.6 9.7 0.00 0.13 0.13 85 1012.9
20260903230021 27 183 3.2 9.7 0.00 0.13 0.13 85 1013.0
20260903225552 27 142 1.6 9.7 0.00 0.13 0.13 85 1012.9
20260903225021 27 180 4.8 11.3 0.00 0.13 0.13 84 1013.0
20260903224529 27 155 6.4 11.3 0.00 0.13 0.13 84 1012.8
20260903224024 27 193 6.4 9.7 0.00 0.13 0.13 84 1012.8
20260903223539 27 142 4.8 9.7 0.00 0.13 0.13 83 1012.8
20260903223036 27 95 4.8 12.9 0.00 0.13 0.13 83 1013.0
20260903222547 27 186 4.8 9.7 0.00 0.13 0.13 82 1013.1
20260903222041 28 167 3.2 12.9 0.00 0.13 0.13 82 1012.7
20260903221528 28 122 4.8 9.7 0.00 0.13 0.13 81 1012.8
20260903221023 28 199 3.2 9.7 0.00 0.13 0.13 83 1013.0
20260903220517 28 192 3.2 11.3 0.00 0.13 0.13 82 1012.9
20260903220031 28 169 3.2 14.5 0.00 0.13 0.13 82 1013.1
20260903215517 28 186 6.4 12.9 0.00 0.13 0.13 83 1013.3
20260903215059 27 169 8.0 16.1 0.00 0.13 0.13 82 1013.4
20260903214527 28 173 4.8 12.9 0.00 0.13 0.13 82 1013.4
20260903214021 28 205 8.0 12.9 0.00 0.13 0.13 82 1013.7
20260903213532 27 202 6.4 12.9 0.00 0.13 0.13 82 1013.7
20260903213052 27 209 8.0 12.9 0.00 0.13 0.13 81 1013.7
20260903212537 27 150 6.4 14.5 0.00 0.13 0.13 82 1013.6
20260903212035 27 202 9.7 16.1 0.00 0.13 0.13 83 1013.6
20260903211600 27 175 9.7 16.1 0.00 0.13 0.13 83 1013.4
20260903211029 27 186 9.7 16.1 0.00 0.13 0.13 83 1013.3
20260903210525 27 189 6.4 14.5 0.00 0.13 0.13 83 1013.4
20260903210048 27 180 6.4 16.1 0.00 0.13 0.13 82 1013.5
20260903205522 27 205 8.0 16.1 0.00 0.13 0.13 82 1013.5
20260903205035 27 179 11.3 22.5 0.00 0.13 0.13 82 1013.6
20260903204519 27 185 11.3 19.3 0.00 0.13 0.13 81 1013.5
20260903204038 27 166 12.9 20.9 0.00 0.13 0.13 81 1013.7
20260903203519 27 197 14.5 20.9 0.00 0.13 0.13 80 1013.8
20260903203031 27 205 14.5 20.9 0.00 0.13 0.13 80 1013.9
20260903202521 27 225 9.7 14.5 0.00 0.13 0.13 80 1013.8
20260903202036 27 209 8.0 12.9 0.00 0.13 0.13 80 1014.1
20260903201533 27 183 8.0 14.5 0.00 0.13 0.13 80 1014.2
20260903201028 27 184 9.7 14.5 0.00 0.13 0.13 79 1014.1
20260903200535 27 186 6.4 16.1 0.00 0.13 0.13 77 1014.1
20260903200036 28 169 9.7 16.1 0.00 0.13 0.13 75 1014.0
20260903195517 28 163 6.4 14.5 0.00 0.13 0.13 74 1014.0
20260903195037 28 128 3.2 17.7 0.00 0.13 0.13 76 1013.9
20260903194527 28 112 6.4 17.7 0.00 0.13 0.13 76 1014.0
20260903194019 28 150 4.8 9.7 0.00 0.13 0.13 78 1014.1
20260903193516 28 198 4.8 12.9 0.00 0.13 0.13 78 1014.1
20260903193037 27 130 3.2 11.3 0.00 0.13 0.13 79 1014.1
20260903192519 27 162 3.2 9.7 0.00 0.13 0.13 78 1014.1
20260903192034 27 163 6.4 14.5 0.00 0.13 0.13 78 1014.1
20260903191531 27 161 9.7 14.5 0.00 0.13 0.13 78 1014.2
20260903191037 27 207 3.2 14.5 0.00 0.13 0.13 77 1014.2
20260903190530 28 148 4.8 14.5 0.00 0.13 0.13 73 1014.3
20260903190048 28 95 6.4 14.5 0.00 0.13 0.13 78 1014.4
20260903185542 28 118 4.8 11.3 0.00 0.13 0.13 76 1014.4
20260903185035 27 199 3.2 11.3 0.00 0.13 0.13 78 1014.4
20260903184523 27 153 4.8 14.5 0.00 0.13 0.13 80 1014.5
20260903184019 27 168 4.8 9.7 0.00 0.13 0.13 79 1014.6
20260903183530 27 123 4.8 11.3 0.00 0.13 0.13 84 1014.6
20260903183021 26 162 4.8 11.3 0.00 0.13 0.13 85 1014.7
20260903182516 25 124 4.8 6.4 0.00 0.13 0.13 82 1014.8
20260903182035 25 119 3.2 6.4 0.00 0.13 0.13 82 1015.0
20260903181535 25 115 3.2 11.3 0.00 0.13 0.13 82 1015.1
20260903181028 25 97 4.8 11.3 0.00 0.13 0.13 82 1015.1
20260903180519 25 82 3.2 11.3 0.00 0.13 0.13 84 1015.3
20260903180028 25 63 3.2 9.7 0.00 0.13 0.13 84 1015.1
20260903175545 25 107 4.8 11.3 0.00 0.13 0.13 83 1015.3
20260903175020 25 110 6.4 11.3 0.00 0.13 0.13 83 1015.4
20260903174534 25 26 6.4 11.3 0.00 0.13 0.13 83 1015.4
20260903174017 25 122 4.8 9.7 0.00 0.13 0.13 84 1015.3
20260903173532 25 101 8.0 12.9 0.00 0.13 0.13 83 1015.3
20260903173023 25 118 4.8 14.5 0.00 0.13 0.13 83 1015.4
20260903172519 25 114 8.0 14.5 0.00 0.13 0.13 82 1015.3
20260903172037 25 117 4.8 14.5 0.00 0.13 0.13 84 1015.1
20260903171532 25 107 8.0 16.1 0.00 0.13 0.13 84 1015.0
20260903171046 25 106 4.8 16.1 0.00 0.13 0.13 85 1015.0
20260903170521 24 99 9.7 12.9 0.00 0.13 0.13 87 1015.0
20260903170024 23 110 4.8 9.7 0.00 0.13 0.13 87 1015.2
20260903165520 23 110 1.6 9.7 0.00 0.13 0.13 86 1015.4
20260903165032 23 110 4.8 9.7 0.00 0.13 0.13 87 1015.2
20260903164519 23 110 3.2 12.9 0.00 0.13 0.13 87 1015.3
20260903164031 23 104 4.8 16.1 0.00 0.13 0.13 87 1015.4
20260903163516 23 115 9.7 16.1 0.00 0.13 0.13 87 1015.1
20260903163027 23 131 6.4 12.9 0.00 0.13 0.13 88 1015.2
20260903162540 23 113 1.6 9.7 0.00 0.13 0.13 88 1015.1
20260903162035 23 67 3.2 12.9 0.00 0.13 0.13 89 1015.1
20260903161533 23 81 6.4 12.9 0.00 0.13 0.13 90 1015.2
20260903161028 23 98 6.4 11.3 0.00 0.13 0.13 89 1015.3
20260903160521 23 128 4.8 8.0 0.00 0.13 0.13 89 1015.1
20260903160047 23 168 4.8 9.7 0.00 0.13 0.13 90 1015.2
20260903155522 23 163 3.2 9.7 0.00 0.13 0.13 90 1014.9
20260903155018 23 162 4.8 11.3 0.00 0.13 0.13 90 1014.8
20260903154528 22 97 4.8 11.3 0.00 0.13 0.13 90 1014.7
20260903154043 22 117 4.8 8.0 0.05 0.13 0.13 90 1014.6
20260903153532 22 116 4.8 9.7 0.10 0.13 0.13 91 1014.6
20260903153019 22 36 1.6 8.0 0.13 0.13 0.13 91 1014.8
20260903152553 22 36 6.4 11.3 0.13 0.13 0.13 90 1014.6
20260903151534 21 69 6.4 12.9 0.13 0.13 0.13 90 1014.5
20260903151046 21 56 3.2 8.0 0.13 0.13 0.13 89 1015.2
20260903150542 21 59 3.2 14.5 0.13 0.13 0.13 89 1015.5
20260903150037 21 311 3.2 14.5 0.13 0.13 0.13 88 1016.0
20260903145553 22 346 6.4 17.7 0.13 0.13 0.13 88 1016.1
20260903145021 22 290 8.0 22.5 0.13 0.13 0.13 87 1016.2
20260903144529 22 312 12.9 30.6 0.10 0.10 0.10 86 1016.4
20260903144046 22 340 19.3 30.6 0.05 0.05 0.05 85 1016.2
20260903143520 22 279 16.1 29.0 0.00 0.00 0.00 85 1016.8
20260903143042 23 254 12.9 27.4 0.00 0.00 0.00 84 1016.6
20260903142532 23 232 16.1 27.4 0.00 0.00 0.00 84 1016.4
20260903142038 23 236 14.5 33.8 0.00 0.00 0.00 84 1016.1
20260903141525 23 272 17.7 37.0 0.00 0.00 0.00 84 1015.9
20260903141021 23 316 19.3 38.6 0.00 0.00 0.00 84 1016.2
20260903140516 23 276 24.1 43.5 0.00 0.00 0.00 84 1016.3
20260903140054 24 340 22.5 48.3 0.00 0.00 0.00 84 1016.2
20260903135526 24 264 25.7 48.3 0.00 0.00 0.00 85 1016.4
20260903135041 24 288 25.7 45.1 0.00 0.00 0.00 87 1016.2
20260903134525 24 293 22.5 45.1 0.00 0.00 0.00 89 1015.8
20260903134041 24 241 17.7 25.7 0.00 0.00 0.00 91 1015.5
20260903133532 24 237 12.9 22.5 0.00 0.00 0.00 91 1015.2
20260903133028 24 252 12.9 22.5 0.00 0.00 0.00 92 1015.3
20260903132523 24 261 8.0 11.3 0.00 0.00 0.00 92 1014.9
20260903132018 24 221 4.8 6.4 0.00 0.00 0.00 92 1014.6
20260903131536 24 300 3.2 6.4 0.00 0.00 0.00 92 1014.6
20260903131025 24 300 4.8 6.4 0.00 0.00 0.00 92 1014.3
20260903130518 23 300 4.8 6.4 0.00 0.00 0.00 93 1014.3
20260903130030 23 300 0.0 3.2 0.00 0.00 0.00 93 1014.3
20260903125526 23 300 0.0 4.8 0.00 0.00 0.00 93 1014.4
20260903125040 23 300 0.0 6.4 0.00 0.00 0.00 93 1014.4
20260903124532 23 300 1.6 6.4 0.00 0.00 0.00 93 1014.3
20260903124037 23 300 4.8 19.3 0.00 0.00 0.00 93 1014.6
20260903123529 23 317 12.9 24.1 0.00 0.00 0.00 93 1014.7
20260903123054 23 15 17.7 24.1 0.00 0.00 0.00 93 1014.6
20260903122528 23 311 6.4 12.9 0.00 0.00 0.00 93 1014.1
20260903122026 23 224 9.7 12.9 0.00 0.00 0.00 93 1013.8
20260903121531 23 211 9.7 12.9 0.00 0.00 0.00 94 1013.5
20260903121037 23 230 8.0 14.5 0.00 0.00 0.00 94 1013.4
20260903120531 23 213 9.7 14.5 0.00 0.00 0.00 94 1013.3
20260903120022 23 213 9.7 14.5 0.00 0.00 0.00 94 1013.4
20260903115519 23 227 9.7 14.5 0.00 0.00 0.00 94 1013.3
20260903115032 23 210 8.0 11.3 0.00 0.00 0.00 94 1013.3
20260903114519 23 200 6.4 12.9 0.00 0.00 0.00 94 1013.3
20260903114031 23 241 6.4 11.3 0.00 0.00 0.00 95 1013.3
20260903113519 23 223 6.4 11.3 0.00 0.00 0.00 95 1013.3
20260903113037 23 221 6.4 11.3 0.00 0.00 0.00 95 1013.3
20260903112530 23 223 6.4 11.3 0.00 0.00 0.00 95 1013.3
20260903112041 23 210 8.0 12.9 0.00 0.00 0.00 95 1013.9
20260903111549 23 214 8.0 12.9 0.00 0.00 0.00 95 1013.3
20260903111024 23 208 8.0 11.3 0.00 0.00 0.00 95 1013.2
20260903110521 23 214 8.0 11.3 0.00 0.00 0.00 95 1013.1
20260903110021 23 198 8.0 12.9 0.00 0.00 0.00 95 1013.1
20260903105552 23 207 8.0 12.9 0.00 0.00 0.00 96 1013.2
20260903105016 23 211 8.0 12.9 0.00 0.00 0.00 96 1013.2
20260903104526 23 227 8.0 9.7 0.00 0.00 0.00 96 1013.2
20260903104018 22 227 6.4 9.7 0.00 0.00 0.00 96 1013.3
20260903103534 22 227 6.4 9.7 0.00 0.00 0.00 96 1013.3
20260903103031 22 227 4.8 8.0 0.00 0.00 0.00 96 1013.3
20260903102536 21 227 4.8 8.0 0.00 0.00 0.00 95 1013.3
20260903102051 21 227 1.6 3.2 0.00 0.00 0.00 95 1013.2
20260903101530 21 227 1.6 3.2 0.00 0.00 0.00 95 1013.2
20260903101028 21 227 0.0 1.6 0.00 0.00 0.00 95 1013.3
20260903100557 21 227 0.0 1.6 0.00 0.00 0.00 95 1013.2
20260903100024 21 227 0.0 1.6 0.00 0.00 0.00 95 1013.2
20260903095520 21 227 0.0 0.0 0.00 0.00 0.00 95 1013.2
20260903095035 21 227 0.0 0.0 0.00 0.00 0.00 95 1013.2
20260903094536 21 227 0.0 0.0 0.00 0.00 0.00 95 1013.1
20260903094031 21 227 0.0 0.0 0.00 0.00 0.00 95 1013.3
20260903093521 21 227 0.0 0.0 0.00 0.00 0.00 95 1013.3
20260903093031 21 227 0.0 0.0 0.00 0.00 0.00 95 1013.3
20260903092526 21 227 0.0 0.0 0.00 0.00 0.00 95 1013.2
20260903092020 21 227 0.0 0.0 0.00 0.00 0.00 95 1013.3
20260903091537 21 227 0.0 0.0 0.00 0.00 0.00 95 1013.2
20260903091027 21 227 0.0 0.0 0.00 0.00 0.00 95 1013.2
20260903090543 21 227 0.0 0.0 0.00 0.00 0.00 95 1013.3
20260903090045 21 227 0.0 0.0 0.00 0.00 0.00 95 1013.2
20260903085518 21 227 0.0 0.0 0.00 0.00 0.00 95 1013.1
20260903085021 21 227 0.0 0.0 0.00 0.00 0.00 95 1013.1
20260903084535 21 227 0.0 0.0 0.00 0.00 0.00 95 1013.1
20260903084031 21 227 0.0 0.0 0.00 0.00 0.00 95 1013.2
20260903083537 21 227 0.0 0.0 0.00 0.00 0.00 95 1013.1
20260903083025 21 227 0.0 0.0 0.00 0.00 0.00 95 1013.2
20260903082521 21 227 0.0 0.0 0.00 0.00 0.00 95 1013.2
20260903082032 21 227 0.0 0.0 0.00 0.00 0.00 95 1013.2
20260903081523 21 227 0.0 0.0 0.00 0.00 0.00 94 1013.2
20260903081017 21 227 0.0 0.0 0.00 0.00 0.00 94 1013.2
20260903080533 21 227 0.0 0.0 0.00 0.00 0.00 94 1013.3
20260903080032 21 227 0.0 0.0 0.00 0.00 0.00 94 1013.3
20260903075526 21 227 0.0 0.0 0.00 0.00 0.00 94 1013.3
20260903075034 21 227 0.0 0.0 0.00 0.00 0.00 94 1013.3
20260903074535 21 227 0.0 0.0 0.00 0.00 0.00 94 1013.3
20260903074029 21 227 0.0 0.0 0.00 0.00 0.00 94 1013.2
20260903073523 22 227 0.0 0.0 0.00 0.00 0.00 94 1013.4
20260903073030 22 227 0.0 0.0 0.00 0.00 0.00 94 1013.3
20260903072521 22 227 0.0 0.0 0.00 0.00 0.00 94 1013.4
20260903072055 22 227 0.0 0.0 0.00 0.00 0.00 94 1013.5
20260903071531 22 227 0.0 0.0 0.00 0.00 0.00 94 1013.4
20260903071025 22 227 0.0 0.0 0.00 0.00 0.00 94 1013.5
20260903070523 22 227 0.0 0.0 0.00 0.00 0.00 94 1013.5
20260903070019 22 227 0.0 0.0 0.00 0.00 0.00 94 1013.7
20260903065558 22 227 0.0 0.0 0.00 0.00 0.00 94 1013.8
20260903065031 22 227 0.0 0.0 0.00 0.00 0.00 95 1013.7
20260903064529 22 227 0.0 0.0 0.00 0.00 0.00 95 1013.7
20260903064045 22 227 0.0 0.0 0.00 0.00 0.00 95 1013.8
20260903063534 22 227 0.0 0.0 0.00 0.00 0.00 95 1013.9
20260903063023 22 227 0.0 0.0 0.00 0.00 0.00 95 1013.8
20260903062521 22 227 0.0 0.0 0.00 0.00 0.00 95 1013.9
20260903062018 22 227 0.0 0.0 0.00 0.00 0.00 95 1013.8
20260903061537 22 227 0.0 0.0 0.00 0.00 0.00 95 1013.9
20260903061022 22 227 0.0 0.0 0.00 0.00 0.00 95 1013.9
20260903060555 22 227 0.0 0.0 0.00 0.00 0.00 95 1014.0
20260903060016 22 227 0.0 0.0 0.00 0.00 0.00 95 1013.9
20260903055534 22 227 0.0 0.0 0.00 0.00 0.00 94 1013.9
20260903055037 22 227 0.0 0.0 0.00 0.00 0.00 94 1013.9
20260903054535 22 227 0.0 0.0 0.00 0.00 0.00 94 1013.9
20260903054028 22 227 0.0 0.0 0.00 0.00 0.00 94 1013.8
20260903053520 22 227 0.0 0.0 0.00 0.00 0.00 94 1014.0
20260903053030 22 227 0.0 0.0 0.00 0.00 0.00 94 1013.9
20260903052526 22 227 0.0 0.0 0.00 0.00 0.00 94 1013.9
20260903052020 22 227 0.0 0.0 0.00 0.00 0.00 94 1013.9
20260903051559 22 227 0.0 1.6 0.00 0.00 0.00 94 1014.0
20260903051031 22 227 0.0 4.8 0.00 0.00 0.00 94 1014.0
20260903050524 22 227 3.2 4.8 0.00 0.00 0.00 94 1014.1
20260903050052 22 227 0.0 3.2 0.00 0.00 0.00 94 1014.1
20260903045526 22 227 0.0 0.0 0.00 0.00 0.00 94 1014.1
20260903045020 22 227 0.0 0.0 0.00 0.00 0.00 94 1014.0
20260903044524 22 227 0.0 1.6 0.00 0.00 0.00 94 1014.1
20260903044036 22 227 0.0 3.2 0.00 0.00 0.00 94 1014.2
20260903043533 22 227 3.2 3.2 0.00 0.00 0.00 93 1014.0
20260903043022 22 227 0.0 0.0 0.00 0.00 0.00 93 1014.0
20260903042525 22 227 0.0 0.0 0.00 0.00 0.00 94 1014.1
20260903042033 23 227 0.0 0.0 0.00 0.00 0.00 94 1014.0
20260903041529 23 227 0.0 0.0 0.00 0.00 0.00 94 1013.9
20260903041045 23 227 0.0 0.0 0.00 0.00 0.00 94 1014.0
20260903040521 23 227 0.0 0.0 0.00 0.00 0.00 94 1014.1
20260903040032 23 227 0.0 0.0 0.00 0.00 0.00 94 1014.1
20260903035525 23 227 0.0 0.0 0.00 0.00 0.00 94 1014.1
20260903035040 23 227 0.0 0.0 0.00 0.00 0.00 93 1014.1